Location: Oklahoma City
(35.4680°N, 97.5160°W)
Time: 08:12:49
(UTC-05:00)

ISS - Visible Passes

Search period start: 01 April 2015 00:00
Search period end: 11 April 2015 00:00
Orbit: 396 x 405 km, 51.6° (Epoch: 01 April)

Date Brightness Start Highest point End Pass type
(mag) Time Alt. Az. Time Alt. Az. Time Alt. Az.
01 Apr -3.4 05:59:48 40° W 06:00:39 58° SW 06:03:48 10° SE visible
01 Apr -1.0 20:58:57 10° S 20:59:23 12° SSE 20:59:23 12° SSE visible
02 Apr -0.6 05:09:48 14° ESE 05:09:48 14° ESE 05:10:21 10° ESE visible
02 Apr -1.9 21:40:32 10° SW 21:42:30 33° WSW 21:42:30 33° WSW visible
03 Apr -3.0 20:47:11 10° SSW 20:50:17 44° SE 20:52:38 16° ENE visible
03 Apr -0.1 22:24:28 10° WNW 22:25:18 14° WNW 22:25:18 14° WNW visible
04 Apr -1.5 21:30:08 10° W 21:33:06 31° NW 21:35:04 17° NNE visible
05 Apr -2.9 20:36:10 10° SW 20:39:24 66° NW 20:42:40 10° NE visible
05 Apr -0.1 22:15:28 10° NW 22:16:21 11° NNW 22:17:07 10° N visible
06 Apr -0.4 21:20:12 10° WNW 21:22:25 17° NNW 21:24:35 10° NNE visible
07 Apr -1.2 20:25:40 10° W 20:28:33 28° NW 20:31:25 10° NNE visible
